Date String (YYYY-MM-DD hh:mm:ss) UTC,Instrument flags,Ambient pressure (hPa),Sample flow (lpm),Bypass flow (lpm),Sample temperature (°C),Ambient temperature (°C),ASC tube jacket temperature (°C),LED temperature (°C),Box temperature (°C),Sample RH (%),Span deviation,Mass concentration (μg/m³),Mass concentration (μg/m³),Mass concentration (μg/m³)
DateTimeUTC,F1_M11,P_M11,Q1_M11,Q2_M11,T1_M11,T2_M11,T3_M11,T4_M11,T5_M11,U1_M11,ZSPAN_M11,X0_M11,X2_M11,X1_M11
2022-06-17 21:00:00,,0824.4,5.01,0.00,29.9,27.3,00.0,38.6,31.3,31.4,0004.0,0025.82,0013.10,0010.26
2022-06-17 21:01:00,,0824.5,5.00,0.00,29.9,27.5,00.0,38.6,31.3,31.2,0004.1,0025.09,0013.05,0010.27
2022-06-17 21:02:00,,0824.5,4.99,0.00,29.9,27.7,00.0,38.6,31.4,30.8,0003.7,0024.66,0013.03,0010.28
2022-06-17 21:03:00,,0824.4,4.99,0.00,29.9,27.9,00.0,38.6,31.4,30.0,0003.3,0024.97,0013.00,0010.26
2022-06-17 21:04:00,,0824.3,5.00,0.00,29.9,28.1,00.0,38.6,31.5,29.0,0003.3,0024.06,0012.90,0010.26
2022-06-17 21:05:00,,0824.3,5.01,0.00,29.9,28.2,00.0,38.6,31.5,28.6,0002.7,0024.02,0012.86,0010.25
2022-06-17 21:06:00,,0824.3,5.00,0.00,29.9,27.9,00.0,38.5,31.4,28.2,0002.9,0023.70,0012.78,0010.24
2022-06-17 21:07:00,,0824.2,4.99,0.00,29.8,27.2,00.0,38.5,31.2,27.6,0002.8,0023.56,0012.80,0010.23
2022-06-17 21:08:00,,0824.3,5.00,0.00,29.8,27.0,00.0,38.4,31.1,27.3,0002.7,0023.91,0012.81,0010.22
2022-06-17 21:09:00,,0824.2,5.01,0.00,29.7,27.0,00.0,38.4,31.1,27.2,0002.7,0023.91,0012.78,0010.20
2022-06-17 21:10:00,,0824.2,5.01,0.00,29.6,27.2,00.0,38.4,31.2,27.4,0002.4,0023.57,0012.67,0010.18
2022-06-17 21:11:00,,0824.2,5.00,0.00,29.6,27.4,00.0,38.4,31.2,27.3,0002.1,0023.16,0012.56,0010.17
2022-06-17 21:12:00,,0824.3,4.99,0.00,29.6,27.6,00.0,38.4,31.3,27.3,0002.1,0022.96,0012.44,0010.14
2022-06-17 21:13:00,,0824.3,5.00,0.00,29.6,27.9,00.0,38.4,31.3,27.3,0002.4,0022.72,0012.36,0010.11
2022-06-17 21:14:00,,0824.3,5.01,0.00,29.7,28.1,00.0,38.4,31.4,27.5,0002.8,0021.90,0012.28,0010.09
2022-06-17 21:15:00,,0824.3,5.00,0.00,29.7,28.1,00.0,38.4,31.4,27.5,0002.4,0021.71,0012.20,0010.08
2022-06-17 21:16:00,,0824.4,5.01,0.00,29.6,27.5,00.0,38.3,31.2,27.5,0002.6,0021.57,0012.18,0010.09
2022-06-17 21:17:00,,0824.4,4.99,0.00,29.6,27.0,00.0,38.3,31.1,27.8,0002.4,0021.21,0012.19,0010.07
2022-06-17 21:18:00,,0824.4,5.01,0.00,29.5,26.9,00.0,38.2,31.0,27.8,0002.5,0020.63,0012.17,0010.08
2022-06-17 21:19:00,,0824.3,5.02,0.00,29.4,27.0,00.0,38.2,31.0,28.0,0002.6,0020.18,0012.16,0010.09
2022-06-17 21:20:00,,0824.3,4.99,0.00,29.4,27.2,00.0,38.2,31.0,28.2,0002.7,0019.72,0012.14,0010.10
2022-06-17 21:21:00,,0824.3,5.00,0.00,29.4,27.4,00.0,38.2,31.1,27.6,0003.2,0019.98,0012.12,0010.10
2022-06-17 21:22:00,,0824.3,5.01,0.00,29.4,27.6,00.0,38.2,31.2,27.2,0003.5,0019.83,0012.09,0010.10
2022-06-17 21:23:00,,0824.3,5.00,0.00,29.4,27.8,00.0,38.2,31.2,27.3,0003.2,0019.65,0012.10,0010.10
2022-06-17 21:24:00,,0824.2,4.99,0.00,29.5,28.0,00.0,38.2,31.3,27.5,0003.1,0019.62,0012.08,0010.12
2022-06-17 21:25:00,,0824.2,5.00,0.00,29.5,28.2,00.0,38.2,31.4,27.3,0003.0,0020.08,0012.10,0010.14
2022-06-17 21:26:00,,0824.2,5.01,0.00,29.5,28.0,00.0,38.2,31.3,26.7,0003.0,0020.23,0012.12,0010.14
2022-06-17 21:27:00,,0824.2,5.01,0.00,29.4,27.3,00.0,38.1,31.1,26.3,0003.0,0020.15,0012.15,0010.14
2022-06-17 21:28:00,,0824.1,5.00,0.00,29.4,26.9,00.0,38.1,31.0,26.0,0002.7,0020.14,0012.11,0010.14
2022-06-17 21:29:00,,0824.1,5.00,0.00,29.3,26.9,00.0,38.1,31.0,25.6,0002.7,0020.07,0012.12,0010.16
2022-06-17 21:30:00,,0824.1,4.99,0.00,29.3,27.0,00.0,38.1,31.0,25.5,0002.9,0019.76,0012.04,0010.16
2022-06-17 21:31:00,,0824.1,5.01,0.00,29.3,27.2,00.0,38.1,31.0,24.9,0002.8,0019.28,0011.97,0010.18
2022-06-17 21:32:00,,0824.1,5.00,0.00,29.3,27.5,00.0,38.1,31.1,24.4,0002.5,0018.58,0012.01,0010.22
2022-06-17 21:33:00,,0824.1,5.00,0.00,29.3,27.7,00.0,38.1,31.1,24.2,0002.7,0018.55,0012.05,0010.26
2022-06-17 21:34:00,,0824.1,5.00,0.00,29.3,27.9,00.0,38.1,31.2,24.2,0003.1,0018.32,0012.06,0010.32
2022-06-17 21:35:00,,0824.1,5.00,0.00,29.3,28.1,00.0,38.1,31.2,24.0,0003.3,0018.46,0012.13,0010.37
2022-06-17 21:36:00,,0824.1,5.00,0.00,29.4,27.9,00.0,38.1,31.2,24.0,0003.3,0018.12,0012.15,0010.42
2022-06-17 21:37:00,,0824.1,5.00,0.00,29.3,27.2,00.0,38.0,31.0,23.9,0003.6,0018.15,0012.23,0010.46
2022-06-17 21:38:00,,0824.1,5.00,0.00,29.2,26.8,00.0,38.0,30.9,23.6,0003.6,0018.27,0012.28,0010.51
2022-06-17 21:39:00,,0824.1,5.00,0.00,29.2,26.7,00.0,1013.8,30.6,23.5,0003.7,0018.18,0012.32,0010.57
2022-06-17 21:40:00,,0824.1,5.01,0.00,29.1,26.9,00.0,37.9,30.9,23.5,0003.5,0018.34,0012.37,0010.63
2022-06-17 21:41:00,,0824.1,5.00,0.00,29.1,27.1,00.0,37.9,30.9,23.7,0003.5,0018.31,0012.39,0010.66
2022-06-17 21:42:00,,0824.1,4.99,0.00,29.1,27.3,00.0,37.9,31.0,23.4,0003.1,0018.51,0012.45,0010.71
2022-06-17 21:43:00,,0824.1,5.01,0.00,29.1,27.5,00.0,37.9,31.0,23.2,0003.1,0018.65,0012.50,0010.73
2022-06-17 21:44:00,,0824.1,5.01,0.00,29.2,27.7,00.0,37.9,31.1,23.2,0002.9,0018.54,0012.48,0010.75
2022-06-17 21:45:00,,0824.1,4.99,0.00,29.2,27.9,00.0,38.0,31.1,23.3,0002.4,0018.59,0012.50,0010.78
2022-06-17 21:46:00,,0824.1,4.99,0.00,29.2,28.1,00.0,38.0,31.2,23.2,0002.6,0018.53,0012.48,0010.80
2022-06-17 21:47:00,,0824.0,5.01,0.00,29.3,28.1,00.0,38.0,31.2,23.1,0002.5,0018.48,0012.50,0010.82
2022-06-17 21:48:00,,0824.0,4.99,0.00,29.2,27.4,00.0,37.9,31.0,23.4,0002.1,0018.51,0012.49,0010.83
2022-06-17 21:49:00,,0824.0,5.00,0.00,29.1,26.9,00.0,37.9,30.8,23.7,0002.1,0018.36,0012.46,0010.85
2022-06-17 21:50:00,,0824.0,5.00,0.00,29.1,26.7,00.0,37.8,30.8,23.7,0002.3,0018.37,0012.42,0010.84
2022-06-17 21:51:00,,0823.9,5.01,0.00,29.0,26.8,00.0,37.8,30.8,23.7,0002.5,0018.32,0012.39,0010.83
2022-06-17 21:52:00,,0823.9,5.00,0.00,29.0,27.0,00.0,37.8,30.8,23.7,0002.3,0018.99,0012.43,0010.83
2022-06-17 21:53:00,,0823.9,5.00,0.00,29.0,27.2,00.0,37.8,30.9,23.6,0002.5,0019.20,0012.47,0010.82
2022-06-17 21:54:00,,0823.8,5.00,0.00,29.0,27.4,00.0,37.8,30.9,23.5,0002.5,0019.44,0012.43,0010.79
2022-06-17 21:55:00,,0823.8,4.99,0.00,29.1,27.6,00.0,37.8,31.0,23.4,0002.6,0019.57,0012.48,0010.78
2022-06-17 21:56:00,,0823.8,4.99,0.00,29.1,27.8,00.0,37.9,31.0,23.5,0002.9,0019.73,0012.55,0010.78
2022-06-17 21:57:00,,0823.8,4.99,0.00,29.1,28.0,00.0,37.9,31.1,23.5,0002.6,0019.93,0012.59,0010.77
2022-06-17 21:58:00,,0823.8,5.00,0.00,29.2,28.1,00.0,37.9,31.1,23.5,0002.6,0020.04,0012.57,0010.76
2022-06-17 21:59:00,,0823.7,5.00,0.00,29.2,27.9,00.0,37.9,31.1,23.5,0002.6,0020.44,0012.61,0010.77
